Year,Month,Day,Hour,Minute,Value (Times are PST for temperature in C)
2006,06,27,00,00,16.80
2006,06,27,00,01,16.80
2006,06,27,00,02,16.70
2006,06,27,00,03,16.70
2006,06,27,00,04,16.70
2006,06,27,00,05,16.70
2006,06,27,00,06,16.70
2006,06,27,00,07,16.70
2006,06,27,00,08,16.70
2006,06,27,00,09,16.70
2006,06,27,00,10,16.70
2006,06,27,00,11,16.60
2006,06,27,00,12,16.60
2006,06,27,00,13,16.60
2006,06,27,00,14,16.50
2006,06,27,00,15,16.40
2006,06,27,00,16,16.40
2006,06,27,00,17,16.40
2006,06,27,00,18,16.40
2006,06,27,00,19,16.40
2006,06,27,00,20,16.40
2006,06,27,00,21,16.40
2006,06,27,00,22,16.40
2006,06,27,00,23,16.30
2006,06,27,00,24,16.30
2006,06,27,00,25,16.30
2006,06,27,00,26,16.20
2006,06,27,00,27,16.20
2006,06,27,00,28,16.20
2006,06,27,00,29,16.20
2006,06,27,00,30,16.20
2006,06,27,00,31,16.10
2006,06,27,00,32,16.10
2006,06,27,00,33,16.10
2006,06,27,00,34,16.10
2006,06,27,00,35,16.10
2006,06,27,00,36,16.10
2006,06,27,00,37,16.10
2006,06,27,00,38,16.10
2006,06,27,00,39,16.10
2006,06,27,00,40,16.10
2006,06,27,00,41,16.10
2006,06,27,00,42,16.10
2006,06,27,00,43,16.10
2006,06,27,00,44,16.10
2006,06,27,00,45,16.00
2006,06,27,00,46,15.90
2006,06,27,00,47,15.90
2006,06,27,00,48,15.90
2006,06,27,00,49,15.90
2006,06,27,00,50,15.90
2006,06,27,00,51,15.80
2006,06,27,00,52,15.80
2006,06,27,00,53,15.80
2006,06,27,00,54,15.80
2006,06,27,00,55,15.80
2006,06,27,00,56,15.80
2006,06,27,00,57,15.80
2006,06,27,00,58,15.80
2006,06,27,00,59,15.80
2006,06,27,01,00,15.80
2006,06,27,01,01,15.80
2006,06,27,01,02,15.80
2006,06,27,01,03,15.70
2006,06,27,01,04,15.70
2006,06,27,01,05,15.70
2006,06,27,01,06,15.70
2006,06,27,01,07,15.70
2006,06,27,01,08,15.70
2006,06,27,01,09,15.70
2006,06,27,01,10,15.70
2006,06,27,01,11,15.70
2006,06,27,01,12,15.70
2006,06,27,01,13,15.70
2006,06,27,01,14,15.60
2006,06,27,01,15,15.60
2006,06,27,01,16,15.60
2006,06,27,01,17,15.50
2006,06,27,01,18,15.50
2006,06,27,01,19,15.50
2006,06,27,01,20,15.50
2006,06,27,01,21,15.50
2006,06,27,01,22,15.40
2006,06,27,01,23,15.40
2006,06,27,01,24,15.40
2006,06,27,01,25,15.40
2006,06,27,01,26,15.40
2006,06,27,01,27,15.40
2006,06,27,01,28,15.40
2006,06,27,01,29,15.30
2006,06,27,01,30,15.30
2006,06,27,01,31,15.30
2006,06,27,01,32,15.30
2006,06,27,01,33,15.30
2006,06,27,01,34,15.30
2006,06,27,01,35,15.30
2006,06,27,01,36,15.30
2006,06,27,01,37,15.30
2006,06,27,01,38,15.20
2006,06,27,01,39,15.20
2006,06,27,01,40,15.20
2006,06,27,01,41,15.20
2006,06,27,01,42,15.20
2006,06,27,01,43,15.20
2006,06,27,01,44,15.20
2006,06,27,01,45,15.20
2006,06,27,01,46,15.20
2006,06,27,01,47,15.20
2006,06,27,01,48,15.20
2006,06,27,01,49,15.20
2006,06,27,01,50,15.20
2006,06,27,01,51,15.20
2006,06,27,01,52,15.10
2006,06,27,01,53,15.10
2006,06,27,01,54,15.10
2006,06,27,01,55,15.10
2006,06,27,01,56,15.00
2006,06,27,01,57,15.00
2006,06,27,01,58,15.00
2006,06,27,01,59,14.90
2006,06,27,02,00,14.90
2006,06,27,02,01,14.90
2006,06,27,02,02,14.80
2006,06,27,02,03,14.80
2006,06,27,02,04,14.80
2006,06,27,02,05,14.80
2006,06,27,02,06,14.80
2006,06,27,02,07,14.70
2006,06,27,02,08,14.70
2006,06,27,02,09,14.60
2006,06,27,02,10,14.60
2006,06,27,02,11,14.60
2006,06,27,02,12,14.50
2006,06,27,02,13,14.50
2006,06,27,02,14,14.50
2006,06,27,02,15,14.50
2006,06,27,02,16,14.50
2006,06,27,02,17,14.50
2006,06,27,02,18,14.40
2006,06,27,02,19,14.40
2006,06,27,02,20,14.40
2006,06,27,02,21,14.40
2006,06,27,02,22,14.40
2006,06,27,02,23,14.40
2006,06,27,02,24,14.40
2006,06,27,02,25,14.30
2006,06,27,02,26,14.30
2006,06,27,02,27,14.30
2006,06,27,02,28,14.30
2006,06,27,02,29,14.30
2006,06,27,02,30,14.30
2006,06,27,02,31,14.30
2006,06,27,02,32,14.30
2006,06,27,02,33,14.30
2006,06,27,02,34,14.30
2006,06,27,02,35,14.30
2006,06,27,02,36,14.30
2006,06,27,02,37,14.30
2006,06,27,02,38,14.30
2006,06,27,02,39,14.30
2006,06,27,02,40,14.30
2006,06,27,02,41,14.20
2006,06,27,02,42,14.20
2006,06,27,02,43,14.20
2006,06,27,02,44,14.20
2006,06,27,02,45,14.20
2006,06,27,02,46,14.20
2006,06,27,02,47,14.20
2006,06,27,02,48,14.20
2006,06,27,02,49,14.20
2006,06,27,02,50,14.20
2006,06,27,02,51,14.20
2006,06,27,02,52,14.20
2006,06,27,02,53,14.20
2006,06,27,02,54,14.20
2006,06,27,02,55,14.20
2006,06,27,02,56,14.20
2006,06,27,02,57,14.20
2006,06,27,02,58,14.20
2006,06,27,02,59,14.20
2006,06,27,03,00,14.20
2006,06,27,03,01,14.20
2006,06,27,03,02,14.20
2006,06,27,03,03,14.20
2006,06,27,03,04,14.20
2006,06,27,03,05,14.20
2006,06,27,03,06,14.20
2006,06,27,03,07,14.20
2006,06,27,03,08,14.20
2006,06,27,03,09,14.20
2006,06,27,03,10,14.20
2006,06,27,03,11,14.10
2006,06,27,03,12,14.10
2006,06,27,03,13,14.00
2006,06,27,03,14,14.00
2006,06,27,03,15,14.00
2006,06,27,03,16,14.00
2006,06,27,03,17,14.00
2006,06,27,03,18,14.00
2006,06,27,03,19,13.90
2006,06,27,03,20,13.90
2006,06,27,03,21,13.90
2006,06,27,03,22,13.90
2006,06,27,03,23,13.90
2006,06,27,03,24,13.90
2006,06,27,03,25,13.90
2006,06,27,03,26,13.80
2006,06,27,03,27,13.80
2006,06,27,03,28,13.80
2006,06,27,03,29,13.80
2006,06,27,03,30,13.80
2006,06,27,03,31,13.80
2006,06,27,03,32,13.90
2006,06,27,03,33,13.80
2006,06,27,03,34,13.80
2006,06,27,03,35,13.80
2006,06,27,03,36,13.80
2006,06,27,03,37,13.80
2006,06,27,03,38,13.80
2006,06,27,03,39,13.80
2006,06,27,03,40,13.70
2006,06,27,03,41,13.70
2006,06,27,03,42,13.70
2006,06,27,03,43,13.70
2006,06,27,03,44,13.70
2006,06,27,03,45,13.70
2006,06,27,03,46,13.70
2006,06,27,03,47,13.60
2006,06,27,03,48,13.60
2006,06,27,03,49,13.50
2006,06,27,03,50,13.50
2006,06,27,03,51,13.50
2006,06,27,03,52,13.50
2006,06,27,03,53,13.50
2006,06,27,03,54,13.50
2006,06,27,03,55,13.50
2006,06,27,03,56,13.40
2006,06,27,03,57,13.40
2006,06,27,03,58,13.40
2006,06,27,03,59,13.40
2006,06,27,04,00,13.40
2006,06,27,04,01,13.40
2006,06,27,04,02,13.40
2006,06,27,04,03,13.40
2006,06,27,04,04,13.40
2006,06,27,04,05,13.40
2006,06,27,04,06,13.40
2006,06,27,04,07,13.30
2006,06,27,04,08,13.30
2006,06,27,04,09,13.30
2006,06,27,04,10,13.30
2006,06,27,04,11,13.30
2006,06,27,04,12,13.30
2006,06,27,04,13,13.30
2006,06,27,04,14,13.30
2006,06,27,04,15,13.30
2006,06,27,04,16,13.30
2006,06,27,04,17,13.20
2006,06,27,04,18,13.20
2006,06,27,04,19,13.20
2006,06,27,04,20,13.20
2006,06,27,04,21,13.20
2006,06,27,04,22,13.10
2006,06,27,04,23,13.10
2006,06,27,04,24,13.10
2006,06,27,04,25,13.10
2006,06,27,04,26,13.10
2006,06,27,04,27,13.00
2006,06,27,04,28,13.00
2006,06,27,04,29,13.00
2006,06,27,04,30,13.00
2006,06,27,04,31,13.00
2006,06,27,04,32,13.00
2006,06,27,04,33,13.00
2006,06,27,04,34,13.00
2006,06,27,04,35,13.00
2006,06,27,04,36,13.00
2006,06,27,04,37,13.00
2006,06,27,04,38,13.00
2006,06,27,04,39,13.00
2006,06,27,04,40,12.90
2006,06,27,04,41,12.90
2006,06,27,04,42,12.90
2006,06,27,04,43,12.90
2006,06,27,04,44,12.90
2006,06,27,04,45,12.90
2006,06,27,04,46,12.90
2006,06,27,04,47,12.90
2006,06,27,04,48,12.90
2006,06,27,04,49,12.90
2006,06,27,04,50,12.80
2006,06,27,04,51,12.80
2006,06,27,04,52,12.80
2006,06,27,04,53,12.80
2006,06,27,04,54,12.80
2006,06,27,04,55,12.80
2006,06,27,04,56,12.80
2006,06,27,04,57,12.80
2006,06,27,04,58,12.80
2006,06,27,04,59,12.80
2006,06,27,05,00,12.80
2006,06,27,05,01,12.80
2006,06,27,05,02,12.80
2006,06,27,05,03,12.80
2006,06,27,05,04,12.80
2006,06,27,05,05,12.80
2006,06,27,05,06,12.70
2006,06,27,05,07,12.70
2006,06,27,05,08,12.70
2006,06,27,05,09,12.70
2006,06,27,05,10,12.70
2006,06,27,05,11,12.70
2006,06,27,05,12,12.70
2006,06,27,05,13,12.70
2006,06,27,05,14,12.70
2006,06,27,05,15,12.70
2006,06,27,05,16,12.70
2006,06,27,05,17,12.60
2006,06,27,05,18,12.60
2006,06,27,05,19,12.60
2006,06,27,05,20,12.60
2006,06,27,05,21,12.60
2006,06,27,05,22,12.60
2006,06,27,05,23,12.60
2006,06,27,05,24,12.60
2006,06,27,05,25,12.60
2006,06,27,05,26,12.60
2006,06,27,05,27,12.60
2006,06,27,05,28,12.60
2006,06,27,05,29,12.60
2006,06,27,05,30,12.60
2006,06,27,05,31,12.60
2006,06,27,05,32,12.60
2006,06,27,05,33,12.60
2006,06,27,05,34,12.50
2006,06,27,05,35,12.50
2006,06,27,05,36,12.50
2006,06,27,05,37,12.50
2006,06,27,05,38,12.50
2006,06,27,05,39,12.50
2006,06,27,05,40,12.50
2006,06,27,05,41,12.50
2006,06,27,05,42,12.50
2006,06,27,05,43,12.50
2006,06,27,05,44,12.50
2006,06,27,05,45,12.50
2006,06,27,05,46,12.50
2006,06,27,05,47,12.50
2006,06,27,05,48,12.50
2006,06,27,05,49,12.50
2006,06,27,05,50,12.50
2006,06,27,05,51,12.50
2006,06,27,05,52,12.50
2006,06,27,05,53,12.50
2006,06,27,05,54,12.50
2006,06,27,05,55,12.50
2006,06,27,05,56,12.50
2006,06,27,05,57,12.50
2006,06,27,05,58,12.50
2006,06,27,05,59,12.50
2006,06,27,06,00,12.50
2006,06,27,06,01,12.50
2006,06,27,06,02,12.50
2006,06,27,06,03,12.50
2006,06,27,06,04,12.50
2006,06,27,06,05,12.50
2006,06,27,06,06,12.50
2006,06,27,06,07,12.60
2006,06,27,06,08,12.60
2006,06,27,06,09,12.60
2006,06,27,06,10,12.60
2006,06,27,06,11,12.60
2006,06,27,06,12,12.60
2006,06,27,06,13,12.70
2006,06,27,06,14,12.70
2006,06,27,06,15,12.70
2006,06,27,06,16,12.70
2006,06,27,06,17,12.80
2006,06,27,06,18,12.80
2006,06,27,06,19,12.90
2006,06,27,06,20,13.00
2006,06,27,06,21,13.10
2006,06,27,06,22,13.20
2006,06,27,06,23,13.30
2006,06,27,06,24,13.30
2006,06,27,06,25,13.40
2006,06,27,06,26,13.50
2006,06,27,06,27,13.60
2006,06,27,06,28,13.70
2006,06,27,06,29,13.70
2006,06,27,06,30,13.80
2006,06,27,06,31,13.90
2006,06,27,06,32,14.00
2006,06,27,06,33,14.00
2006,06,27,06,34,14.10
2006,06,27,06,35,14.10
2006,06,27,06,36,14.20
2006,06,27,06,37,14.20
2006,06,27,06,38,14.20
2006,06,27,06,39,14.20
2006,06,27,06,40,14.30
2006,06,27,06,41,14.30
2006,06,27,06,42,14.40
2006,06,27,06,43,14.40
2006,06,27,06,44,14.50
2006,06,27,06,45,14.60
2006,06,27,06,46,14.70
2006,06,27,06,47,14.80
2006,06,27,06,48,14.80
2006,06,27,06,49,14.90
2006,06,27,06,50,15.00
2006,06,27,06,51,15.00
2006,06,27,06,52,15.10
2006,06,27,06,53,15.20
2006,06,27,06,54,15.20
2006,06,27,06,55,15.20
2006,06,27,06,56,15.20
2006,06,27,06,57,15.20
2006,06,27,06,58,15.30
2006,06,27,06,59,15.30
2006,06,27,07,00,15.40
2006,06,27,07,01,15.50
2006,06,27,07,02,15.60
2006,06,27,07,03,15.60
2006,06,27,07,04,15.70
2006,06,27,07,05,15.80
2006,06,27,07,06,15.80
2006,06,27,07,07,15.90
2006,06,27,07,08,15.90
2006,06,27,07,09,15.90
2006,06,27,07,10,16.00
2006,06,27,07,11,16.10
2006,06,27,07,12,16.10
2006,06,27,07,13,16.10
2006,06,27,07,14,16.10
2006,06,27,07,15,16.10
2006,06,27,07,16,16.10
2006,06,27,07,17,16.20
2006,06,27,07,18,16.30
2006,06,27,07,19,16.30
2006,06,27,07,20,16.40
2006,06,27,07,21,16.40
2006,06,27,07,22,16.50
2006,06,27,07,23,16.60
2006,06,27,07,24,16.70
2006,06,27,07,25,16.70
2006,06,27,07,26,16.80
2006,06,27,07,27,16.90
2006,06,27,07,28,17.00
2006,06,27,07,29,17.10
2006,06,27,07,30,17.20
2006,06,27,07,31,17.30
2006,06,27,07,32,17.40
2006,06,27,07,33,17.50
2006,06,27,07,34,17.50
2006,06,27,07,35,17.60
2006,06,27,07,36,17.60
2006,06,27,07,37,17.70
2006,06,27,07,38,17.80
2006,06,27,07,39,18.00
2006,06,27,07,40,18.10
2006,06,27,07,41,18.20
2006,06,27,07,42,18.20
2006,06,27,07,43,18.40
2006,06,27,07,44,18.50
2006,06,27,07,45,18.50
2006,06,27,07,46,18.60
2006,06,27,07,47,18.60
2006,06,27,07,48,18.70
2006,06,27,07,49,18.80
2006,06,27,07,50,18.90
2006,06,27,07,51,19.00
2006,06,27,07,52,19.10
2006,06,27,07,53,19.10
2006,06,27,07,54,19.10
2006,06,27,07,55,19.10
2006,06,27,07,56,19.10
2006,06,27,07,57,19.20
2006,06,27,07,58,19.20
2006,06,27,07,59,19.20
2006,06,27,08,00,19.30
2006,06,27,08,01,19.40
2006,06,27,08,02,19.50
2006,06,27,08,03,19.70
2006,06,27,08,04,19.80
2006,06,27,08,05,19.90
2006,06,27,08,06,20.00
2006,06,27,08,07,20.10
2006,06,27,08,08,20.20
2006,06,27,08,09,20.20
2006,06,27,08,10,20.20
2006,06,27,08,11,20.20
2006,06,27,08,12,20.20
2006,06,27,08,13,20.20
2006,06,27,08,14,20.20
2006,06,27,08,15,20.20
2006,06,27,08,16,20.30
2006,06,27,08,17,20.30
2006,06,27,08,18,20.40
2006,06,27,08,19,20.50
2006,06,27,08,20,20.60
2006,06,27,08,21,20.70
2006,06,27,08,22,20.80
2006,06,27,08,23,20.80
2006,06,27,08,24,20.90
2006,06,27,08,25,20.90
2006,06,27,08,26,20.90
2006,06,27,08,27,20.80
2006,06,27,08,28,20.70
2006,06,27,08,29,20.80
2006,06,27,08,30,20.80
2006,06,27,08,31,20.80
2006,06,27,08,32,20.70
2006,06,27,08,33,20.60
2006,06,27,08,34,20.50
2006,06,27,08,35,20.50
2006,06,27,08,36,20.40
2006,06,27,08,37,20.40
2006,06,27,08,38,20.40
2006,06,27,08,39,20.40
2006,06,27,08,40,20.50
2006,06,27,08,41,20.50
2006,06,27,08,42,20.60
2006,06,27,08,43,20.60
2006,06,27,08,44,20.60
2006,06,27,08,45,20.60
2006,06,27,08,46,20.50
2006,06,27,08,47,20.50
2006,06,27,08,48,20.50
2006,06,27,08,49,20.40
2006,06,27,08,50,20.30
2006,06,27,08,51,20.30
2006,06,27,08,52,20.30
2006,06,27,08,53,20.30
2006,06,27,08,54,20.40
2006,06,27,08,55,20.50
2006,06,27,08,56,20.50
2006,06,27,08,57,20.60
2006,06,27,08,58,20.70
2006,06,27,08,59,20.80
2006,06,27,09,00,20.80
2006,06,27,09,01,20.80
2006,06,27,09,02,20.80
2006,06,27,09,03,20.80
2006,06,27,09,04,20.60
2006,06,27,09,05,20.60
2006,06,27,09,06,20.50
2006,06,27,09,07,20.50
2006,06,27,09,08,20.50
2006,06,27,09,09,20.50
2006,06,27,09,10,20.40
2006,06,27,09,11,20.30
2006,06,27,09,12,20.30
2006,06,27,09,13,20.40
2006,06,27,09,14,20.50
2006,06,27,09,15,20.60
2006,06,27,09,16,20.70
2006,06,27,09,17,20.80
2006,06,27,09,18,20.90
2006,06,27,09,19,21.00
2006,06,27,09,20,21.00
2006,06,27,09,21,21.10
2006,06,27,09,22,21.00
2006,06,27,09,23,21.00
2006,06,27,09,24,20.90
2006,06,27,09,25,20.90
2006,06,27,09,26,20.90
2006,06,27,09,27,21.00
2006,06,27,09,28,20.90
2006,06,27,09,29,20.80
2006,06,27,09,30,20.90
2006,06,27,09,31,21.00
2006,06,27,09,32,21.00
2006,06,27,09,33,21.10
2006,06,27,09,34,21.00
2006,06,27,09,35,21.00
2006,06,27,09,36,21.00
2006,06,27,09,37,21.00
2006,06,27,09,38,20.90
2006,06,27,09,39,21.00
2006,06,27,09,40,21.00
2006,06,27,09,41,21.00
2006,06,27,09,42,21.10
2006,06,27,09,43,21.00
2006,06,27,09,44,20.90
2006,06,27,09,45,20.80
2006,06,27,09,46,20.90
2006,06,27,09,47,20.90
2006,06,27,09,48,21.00
2006,06,27,09,49,21.00
2006,06,27,09,50,21.00
2006,06,27,09,51,21.20
2006,06,27,09,52,21.30
2006,06,27,09,53,21.30
2006,06,27,09,54,21.30
2006,06,27,09,55,21.30
2006,06,27,09,56,21.20
2006,06,27,09,57,21.10
2006,06,27,09,58,21.00
2006,06,27,09,59,21.00
2006,06,27,10,00,21.00
2006,06,27,10,01,21.00
2006,06,27,10,02,21.00
2006,06,27,10,03,21.00
2006,06,27,10,04,21.00
2006,06,27,10,05,20.90
2006,06,27,10,06,20.90
2006,06,27,10,07,20.90
2006,06,27,10,08,20.90
2006,06,27,10,09,21.00
2006,06,27,10,10,21.00
2006,06,27,10,11,20.90
2006,06,27,10,12,20.80
2006,06,27,10,13,20.70
2006,06,27,10,14,20.60
2006,06,27,10,15,20.60
2006,06,27,10,16,20.60
2006,06,27,10,17,20.70
2006,06,27,10,18,20.80
2006,06,27,10,19,20.80
2006,06,27,10,20,20.90
2006,06,27,10,21,21.00
2006,06,27,10,22,21.20
2006,06,27,10,23,21.30
2006,06,27,10,24,21.30
2006,06,27,10,25,21.30
2006,06,27,10,26,21.40
2006,06,27,10,27,21.40
2006,06,27,10,28,21.40
2006,06,27,10,29,21.40
2006,06,27,10,30,21.40
2006,06,27,10,31,21.40
2006,06,27,10,32,21.40
2006,06,27,10,33,21.40
2006,06,27,10,34,21.40
2006,06,27,10,35,21.40
2006,06,27,10,36,21.40
2006,06,27,10,37,21.40
2006,06,27,10,38,21.40
2006,06,27,10,39,21.40
2006,06,27,10,40,21.40
2006,06,27,10,41,21.40
2006,06,27,10,42,21.50
2006,06,27,10,43,21.60
2006,06,27,10,44,21.60
2006,06,27,10,45,21.60
2006,06,27,10,46,21.70
2006,06,27,10,47,21.70
2006,06,27,10,48,21.80
2006,06,27,10,49,21.80
2006,06,27,10,50,21.80
2006,06,27,10,51,21.90
2006,06,27,10,52,21.80
2006,06,27,10,53,21.80
2006,06,27,10,54,21.70
2006,06,27,10,55,21.80
2006,06,27,10,56,21.80
2006,06,27,10,57,21.80
2006,06,27,10,58,21.90
2006,06,27,10,59,21.90
2006,06,27,11,00,21.90
2006,06,27,11,01,21.90
2006,06,27,11,02,21.90
2006,06,27,11,03,21.90
2006,06,27,11,04,21.90
2006,06,27,11,05,21.80
2006,06,27,11,06,21.70
2006,06,27,11,07,21.60
2006,06,27,11,08,21.50
2006,06,27,11,09,21.40
2006,06,27,11,10,21.40
2006,06,27,11,11,21.40
2006,06,27,11,12,21.40
2006,06,27,11,13,21.40
2006,06,27,11,14,21.30
2006,06,27,11,15,21.30
2006,06,27,11,16,21.30
2006,06,27,11,17,21.30
2006,06,27,11,18,21.30
2006,06,27,11,19,21.20
2006,06,27,11,20,21.20
2006,06,27,11,21,21.30
2006,06,27,11,22,21.30
2006,06,27,11,23,21.30
2006,06,27,11,24,21.30
2006,06,27,11,25,21.40
2006,06,27,11,26,21.40
2006,06,27,11,27,21.30
2006,06,27,11,28,21.30
2006,06,27,11,29,21.40
2006,06,27,11,30,21.50
2006,06,27,11,31,21.50
2006,06,27,11,32,21.40
2006,06,27,11,33,21.50
2006,06,27,11,34,21.60
2006,06,27,11,35,21.60
2006,06,27,11,36,21.70
2006,06,27,11,37,21.70
2006,06,27,11,38,21.80
2006,06,27,11,39,21.80
2006,06,27,11,40,21.70
2006,06,27,11,41,21.60
2006,06,27,11,42,21.60
2006,06,27,11,43,21.60
2006,06,27,11,44,21.70
2006,06,27,11,45,21.70
2006,06,27,11,46,21.70
2006,06,27,11,47,21.80
2006,06,27,11,48,21.80
2006,06,27,11,49,21.80
2006,06,27,11,50,21.70
2006,06,27,11,51,21.60
2006,06,27,11,52,21.60
2006,06,27,11,53,21.50
2006,06,27,11,54,21.40
2006,06,27,11,55,21.30
2006,06,27,11,56,21.40
2006,06,27,11,57,21.30
2006,06,27,11,58,21.20
2006,06,27,11,59,21.20
2006,06,27,12,00,21.30
2006,06,27,12,01,21.30
2006,06,27,12,02,21.30
2006,06,27,12,03,21.30
2006,06,27,12,04,21.30
2006,06,27,12,05,21.30
2006,06,27,12,06,21.40
2006,06,27,12,07,21.40
2006,06,27,12,08,21.30
2006,06,27,12,09,21.40
2006,06,27,12,10,21.50
2006,06,27,12,11,21.40
2006,06,27,12,12,21.40
2006,06,27,12,13,21.30
2006,06,27,12,14,21.40
2006,06,27,12,15,21.40
2006,06,27,12,16,21.30
2006,06,27,12,17,21.30
2006,06,27,12,18,21.30
2006,06,27,12,19,21.30
2006,06,27,12,20,21.30
2006,06,27,12,21,21.30
2006,06,27,12,22,21.30
2006,06,27,12,23,21.40
2006,06,27,12,24,21.40
2006,06,27,12,25,21.60
2006,06,27,12,26,21.60
2006,06,27,12,27,21.80
2006,06,27,12,28,21.80
2006,06,27,12,29,21.70
2006,06,27,12,30,21.60
2006,06,27,12,31,21.50
2006,06,27,12,32,21.40
2006,06,27,12,33,21.50
2006,06,27,12,34,21.60
2006,06,27,12,35,21.60
2006,06,27,12,36,21.60
2006,06,27,12,37,21.60
2006,06,27,12,38,21.70
2006,06,27,12,39,21.70
2006,06,27,12,40,21.70
2006,06,27,12,41,21.60
2006,06,27,12,42,21.60
2006,06,27,12,43,21.50
2006,06,27,12,44,21.40
2006,06,27,12,45,21.30
2006,06,27,12,46,21.30
2006,06,27,12,47,21.30
2006,06,27,12,48,21.30
2006,06,27,12,49,21.30
2006,06,27,12,50,21.40
2006,06,27,12,51,21.60
2006,06,27,12,52,21.60
2006,06,27,12,53,21.60
2006,06,27,12,54,21.60
2006,06,27,12,55,21.80
2006,06,27,12,56,21.80
2006,06,27,12,57,21.90
2006,06,27,12,58,21.90
2006,06,27,12,59,22.00
2006,06,27,13,00,22.00
2006,06,27,13,01,21.80
2006,06,27,13,02,21.70
2006,06,27,13,03,21.60
2006,06,27,13,04,21.60
2006,06,27,13,05,21.60
2006,06,27,13,06,21.60
2006,06,27,13,07,21.60
2006,06,27,13,08,21.60
2006,06,27,13,09,21.60
2006,06,27,13,10,21.60
2006,06,27,13,11,21.70
2006,06,27,13,12,21.70
2006,06,27,13,13,21.70
2006,06,27,13,14,21.70
2006,06,27,13,15,21.70
2006,06,27,13,16,21.60
2006,06,27,13,17,21.60
2006,06,27,13,18,21.50
2006,06,27,13,19,21.40
2006,06,27,13,20,21.40
2006,06,27,13,21,21.50
2006,06,27,13,22,21.60
2006,06,27,13,23,21.60
2006,06,27,13,24,21.60
2006,06,27,13,25,21.60
2006,06,27,13,26,21.50
2006,06,27,13,27,21.40
2006,06,27,13,28,21.40
2006,06,27,13,29,21.30
2006,06,27,13,30,21.30
2006,06,27,13,31,21.30
2006,06,27,13,32,21.30
2006,06,27,13,33,21.30
2006,06,27,13,34,21.30
2006,06,27,13,35,21.30
2006,06,27,13,36,21.30
2006,06,27,13,37,21.30
2006,06,27,13,38,21.30
2006,06,27,13,39,21.30
2006,06,27,13,40,21.30
2006,06,27,13,41,21.30
2006,06,27,13,42,21.30
2006,06,27,13,43,21.30
2006,06,27,13,44,21.40
2006,06,27,13,45,21.60
2006,06,27,13,46,21.50
2006,06,27,13,47,21.40
2006,06,27,13,48,21.30
2006,06,27,13,49,21.30
2006,06,27,13,50,21.30
2006,06,27,13,51,21.30
2006,06,27,13,52,21.30
2006,06,27,13,53,21.30
2006,06,27,13,54,21.30
2006,06,27,13,55,21.30
2006,06,27,13,56,21.30
2006,06,27,13,57,21.30
2006,06,27,13,58,21.20
2006,06,27,13,59,21.20
2006,06,27,14,00,21.30
2006,06,27,14,01,21.30
2006,06,27,14,02,21.30
2006,06,27,14,03,21.30
2006,06,27,14,04,21.30
2006,06,27,14,05,21.30
2006,06,27,14,06,21.30
2006,06,27,14,07,21.30
2006,06,27,14,08,21.30
2006,06,27,14,09,21.30
2006,06,27,14,10,21.30
2006,06,27,14,11,21.30
2006,06,27,14,12,21.40
2006,06,27,14,13,21.50
2006,06,27,14,14,21.60
2006,06,27,14,15,21.60
2006,06,27,14,16,21.60
2006,06,27,14,17,21.60
2006,06,27,14,18,21.60
2006,06,27,14,19,21.60
2006,06,27,14,20,21.60
2006,06,27,14,21,21.70
2006,06,27,14,22,21.70
2006,06,27,14,23,21.70
2006,06,27,14,24,21.70
2006,06,27,14,25,21.70
2006,06,27,14,26,21.60
2006,06,27,14,27,21.60
2006,06,27,14,28,21.60
2006,06,27,14,29,21.60
2006,06,27,14,30,21.60
2006,06,27,14,31,21.60
2006,06,27,14,32,21.80
2006,06,27,14,33,21.90
2006,06,27,14,34,21.90
2006,06,27,14,35,21.90
2006,06,27,14,36,21.90
2006,06,27,14,37,21.90
2006,06,27,14,38,22.00
2006,06,27,14,39,22.00
2006,06,27,14,40,22.20
2006,06,27,14,41,22.30
2006,06,27,14,42,22.40
2006,06,27,14,43,22.40
2006,06,27,14,44,22.50
2006,06,27,14,45,22.50
2006,06,27,14,46,22.50
2006,06,27,14,47,22.50
2006,06,27,14,48,22.50
2006,06,27,14,49,22.50
2006,06,27,14,50,22.50
2006,06,27,14,51,22.40
2006,06,27,14,52,22.30
2006,06,27,14,53,22.30
2006,06,27,14,54,22.20
2006,06,27,14,55,22.10
2006,06,27,14,56,22.00
2006,06,27,14,57,22.00
2006,06,27,14,58,22.10
2006,06,27,14,59,22.20
2006,06,27,15,00,22.20
2006,06,27,15,01,22.20
2006,06,27,15,02,22.20
2006,06,27,15,03,22.20
2006,06,27,15,04,22.20
2006,06,27,15,05,22.20
2006,06,27,15,06,22.10
2006,06,27,15,07,22.00
2006,06,27,15,08,22.00
2006,06,27,15,09,22.00
2006,06,27,15,10,22.10
2006,06,27,15,11,22.10
2006,06,27,15,12,22.20
2006,06,27,15,13,22.20
2006,06,27,15,14,22.30
2006,06,27,15,15,22.30
2006,06,27,15,16,22.30
2006,06,27,15,17,22.40
2006,06,27,15,18,22.40
2006,06,27,15,19,22.30
2006,06,27,15,20,22.30
2006,06,27,15,21,22.30
2006,06,27,15,22,22.30
2006,06,27,15,23,22.40
2006,06,27,15,24,22.40
2006,06,27,15,25,22.50
2006,06,27,15,26,22.50
2006,06,27,15,27,22.50
2006,06,27,15,28,22.60
2006,06,27,15,29,22.60
2006,06,27,15,30,22.70
2006,06,27,15,31,22.70
2006,06,27,15,32,22.70
2006,06,27,15,33,22.90
2006,06,27,15,34,22.90
2006,06,27,15,35,23.00
2006,06,27,15,36,23.10
2006,06,27,15,37,23.20
2006,06,27,15,38,23.20
2006,06,27,15,39,23.10
2006,06,27,15,40,23.10
2006,06,27,15,41,23.00
2006,06,27,15,42,22.90
2006,06,27,15,43,22.90
2006,06,27,15,44,22.90
2006,06,27,15,45,23.10
2006,06,27,15,46,23.10
2006,06,27,15,47,23.20
2006,06,27,15,48,23.30
2006,06,27,15,49,23.30
2006,06,27,15,50,23.30
2006,06,27,15,51,23.30
2006,06,27,15,52,23.30
2006,06,27,15,53,23.30
2006,06,27,15,54,23.40
2006,06,27,15,55,23.40
2006,06,27,15,56,23.40
2006,06,27,15,57,23.40
2006,06,27,15,58,23.30
2006,06,27,15,59,23.30
2006,06,27,16,00,23.40
2006,06,27,16,01,23.40
2006,06,27,16,02,23.50
2006,06,27,16,03,23.60
2006,06,27,16,04,23.70
2006,06,27,16,05,23.70
2006,06,27,16,06,23.70
2006,06,27,16,07,23.70
2006,06,27,16,08,23.60
2006,06,27,16,09,23.60
2006,06,27,16,10,23.60
2006,06,27,16,11,23.70
2006,06,27,16,12,23.70
2006,06,27,16,13,23.90
2006,06,27,16,14,24.00
2006,06,27,16,15,24.10
2006,06,27,16,16,24.20
2006,06,27,16,17,24.30
2006,06,27,16,18,24.40
2006,06,27,16,19,24.50
2006,06,27,16,20,24.50
2006,06,27,16,21,24.50
2006,06,27,16,22,24.60
2006,06,27,16,23,24.70
2006,06,27,16,24,24.70
2006,06,27,16,25,24.70
2006,06,27,16,26,24.80
2006,06,27,16,27,24.80
2006,06,27,16,28,24.80
2006,06,27,16,29,24.70
2006,06,27,16,30,24.60
2006,06,27,16,31,24.50
2006,06,27,16,32,24.50
2006,06,27,16,33,24.50
2006,06,27,16,34,24.50
2006,06,27,16,35,24.50
2006,06,27,16,36,24.40
2006,06,27,16,37,24.40
2006,06,27,16,38,24.30
2006,06,27,16,39,24.20
2006,06,27,16,40,24.20
2006,06,27,16,41,24.20
2006,06,27,16,42,24.10
2006,06,27,16,43,24.10
2006,06,27,16,44,24.10
2006,06,27,16,45,24.20
2006,06,27,16,46,24.20
2006,06,27,16,47,24.20
2006,06,27,16,48,24.20
2006,06,27,16,49,24.20
2006,06,27,16,50,24.30
2006,06,27,16,51,24.50
2006,06,27,16,52,24.60
2006,06,27,16,53,24.80
2006,06,27,16,54,24.90
2006,06,27,16,55,24.90
2006,06,27,16,56,24.80
2006,06,27,16,57,24.70
2006,06,27,16,58,24.60
2006,06,27,16,59,24.50
2006,06,27,17,00,24.40
2006,06,27,17,01,24.30
2006,06,27,17,02,24.20
2006,06,27,17,03,24.10
2006,06,27,17,04,24.10
2006,06,27,17,05,24.10
2006,06,27,17,06,24.10
2006,06,27,17,07,24.20
2006,06,27,17,08,24.20
2006,06,27,17,09,24.20
2006,06,27,17,10,24.20
2006,06,27,17,11,24.20
2006,06,27,17,12,24.20
2006,06,27,17,13,24.30
2006,06,27,17,14,24.30
2006,06,27,17,15,24.30
2006,06,27,17,16,24.20
2006,06,27,17,17,24.20
2006,06,27,17,18,24.20
2006,06,27,17,19,24.10